QPF
0.01 0.01 0.00 0.00 0.00 0.01 0.01 0.01 0.01 0.01 0.01 0.01 0.02 0.02 0.03 0.02 0.01 0.01 0.01 0.01 0.01 0.02 0.04 0.04 0.04 0.04 0.05 0.05 0.04 0.03 0.03 0.03 0.03 0.02 0.03 0.03 0.04 0.03 0.03 0.04 0.04 0.06 0.07
0.01 0.01 0.01 0.00 0.00 0.00 0.01 0.01 0.01 0.02 0.02 0.02 0.02 0.03 0.03 0.02 0.01 0.01 0.01 0.01 0.01 0.01 0.04 0.05 0.06 0.05 0.05 0.04 0.04 0.04 0.03 0.02 0.03 0.03 0.04 0.05 0.04 0.04 0.02 0.03 0.04 0.05 0.06
0.00 0.00 0.00 0.00 0.00 0.00 0.00 0.00 0.01 0.01 0.02 0.03 0.02 0.02 0.03 0.03 0.02 0.01 0.03 0.02 0.01 0.02 0.05 0.04 0.05 0.06 0.05 0.05 0.04 0.04 0.04 0.03 0.04 0.04 0.05 0.05 0.04 0.04 0.04 0.03 0.03 0.04 0.05
0.00 0.00 0.00 0.00 0.00 0.00 0.00 0.00 0.01 0.01 0.01 0.02 0.02 0.02 0.02 0.03 0.03 0.03 0.03 0.02 0.02 0.02 0.02 0.03 0.04 0.05 0.05 0.06 0.05 0.04 0.05 0.05 0.05 0.05 0.04 0.04 0.04 0.04 0.04 0.04 0.03 0.03 0.04
0.00 0.00 0.00 0.00 0.00 0.00 0.00 0.01 0.02 0.02 0.02 0.01 0.03 0.04 0.03 0.04 0.04 0.03 0.03 0.02 0.02 0.02 0.02 0.05 0.04 0.05 0.05 0.05 0.04 0.04 0.04 0.05 0.05 0.04 0.04 0.04 0.04 0.04 0.04 0.05 0.05 0.04 0.03
0.00 0.00 0.00 0.00 0.00 0.00 0.00 0.01 0.01 0.01 0.02 0.03 0.04 0.05 0.03 0.03 0.03 0.04 0.04 0.03 0.03 0.03 0.02 0.05 0.06 0.04 0.04 0.05 0.05 0.04 0.03 0.04 0.05 0.05 0.04 0.05 0.05 0.05 0.05 0.04 0.05 0.04 0.05
0.00 0.00 0.00 0.00 0.00 0.00 0.00 0.01 0.01 0.01 0.01 0.02 0.03 0.03 0.02 0.03 0.03 0.03 0.03 0.03 0.03 0.03 0.04 0.04 0.05 0.05 0.05 0.05 0.04 0.04 0.04 0.04 0.04 0.04 0.04 0.05 0.05 0.06 0.06 0.06 0.04 0.03 0.03
0.00 0.00 0.00 0.00 0.00 0.00 0.00 0.00 0.01 0.02 0.02 0.02 0.03 0.04 0.03 0.02 0.02 0.03 0.03 0.04 0.03 0.04 0.04 0.05 0.06 0.05 0.04 0.03 0.05 0.05 0.05 0.04 0.03 0.03 0.04 0.04 0.04 0.05 0.04 0.04 0.04 0.03 0.03
0.00 0.00 0.00 0.00 0.00 0.00 0.00 0.01 0.02 0.02 0.02 0.02 0.03 0.03 0.02 0.01 0.02 0.03 0.03 0.04 0.05 0.06 0.07 0.07 0.07 0.06 0.03 0.03 0.04 0.05 0.04 0.03 0.03 0.03 0.04 0.04 0.04 0.03 0.02 0.03 0.04 0.05 0.04
0.00 0.00 0.00 0.00 0.00 0.00 0.00 0.01 0.01 0.01 0.01 0.02 0.02 0.01 0.02 0.02 0.02 0.02 0.02 0.02 0.03 0.04 0.05 0.07 0.07 0.07 0.06 0.05 0.05 0.05 0.05 0.04 0.04 0.06 0.06 0.06 0.03 0.03 0.03 0.04 0.04 0.04 0.05
0.00 0.00 0.00 0.00 0.00 0.00 0.00 0.01 0.01 0.00 0.01 0.01 0.01 0.01 0.01 0.02 0.02 0.01 0.01 0.01 0.02 0.02 0.02 0.04 0.05 0.07 0.08 0.06 0.06 0.05 0.05 0.03 0.03 0.05 0.05 0.05 0.05 0.04 0.03 0.04 0.04 0.04 0.04
0.00 0.00 0.00 0.00 0.00 0.00 0.00 0.00 0.01 0.00 0.00 0.01 0.01 0.00 0.00 0.01 0.02 0.01 0.01 0.01 0.02 0.02 0.03 0.03 0.04 0.05 0.06 0.05 0.04 0.04 0.04 0.04 0.05 0.05 0.05 0.04 0.04 0.04 0.04 0.04 0.04 0.04 0.05
0.00 0.00 0.00 0.00 0.00 0.00 0.00 0.00 0.00 0.00 0.00 0.01 0.01 0.00 0.00 0.01 0.01 0.02 0.01 0.00 0.02 0.03 0.03 0.03 0.04 0.05 0.04 0.03 0.03 0.03 0.04 0.05 0.05 0.04 0.03 0.04 0.06 0.05 0.05 0.05 0.04 0.04 0.04
0.00 0.00 0.00 0.00 0.00 0.00 0.00 0.00 0.00 0.00 0.00 0.01 0.01 0.00 0.00 0.01 0.01 0.01 0.01 0.01 0.02 0.02 0.02 0.02 0.02 0.03 0.04 0.03 0.03 0.02 0.03 0.03 0.03 0.04 0.05 0.04 0.05 0.06 0.06 0.05 0.05 0.04 0.05
0.01 0.00 0.00 0.00 0.00 0.00 0.00 0.00 0.00 0.00 0.00 0.01 0.01 0.01 0.01 0.02 0.03 0.02 0.03 0.02 0.02 0.02 0.02 0.01 0.02 0.03 0.03 0.02 0.02 0.03 0.02 0.02 0.03 0.03 0.03 0.04 0.03 0.04 0.04 0.03 0.04 0.05 0.05
0.01 0.01 0.01 0.01 0.01 0.01 0.01 0.01 0.02 0.02 0.02 0.02 0.02 0.02 0.02 0.02 0.02 0.02 0.02 0.02 0.01 0.02 0.02 0.02 0.02 0.01 0.01 0.01 0.01 0.02 0.02 0.02 0.02 0.03 0.03 0.03 0.02 0.02 0.03 0.03 0.03 0.04 0.05
0.00 0.00 0.00 0.01 0.02 0.01 0.01 0.01 0.01 0.02 0.03 0.02 0.02 0.02 0.02 0.02 0.02 0.01 0.01 0.01 0.01 0.02 0.02 0.02 0.02 0.01 0.01 0.00 0.00 0.01 0.02 0.03 0.04 0.04 0.04 0.03 0.02 0.02 0.03 0.03 0.02 0.02 0.02
0.00 0.00 0.01 0.02 0.03 0.03 0.02 0.02 0.02 0.02 0.02 0.02 0.02 0.02 0.02 0.02 0.01 0.01 0.01 0.01 0.01 0.02 0.01 0.01 0.01 0.01 0.01 0.01 0.01 0.01 0.02 0.03 0.03 0.03 0.03 0.03 0.02 0.02 0.03 0.03 0.03 0.03 0.03
0.00 0.00 0.01 0.02 0.02 0.03 0.03 0.03 0.03 0.02 0.03 0.03 0.02 0.02 0.02 0.01 0.01 0.01 0.01 0.01 0.01 0.02 0.01 0.01 0.01 0.02 0.02 0.01 0.01 0.02 0.02 0.02 0.01 0.01 0.01 0.01 0.01 0.02 0.02 0.02 0.02 0.02 0.03
0.00 0.01 0.01 0.01 0.01 0.01 0.01 0.02 0.02 0.03 0.04 0.03 0.03 0.03 0.02 0.01 0.01 0.01 0.01 0.01 0.01 0.02 0.02 0.01 0.02 0.01 0.02 0.02 0.01 0.01 0.02 0.02 0.02 0.02 0.02 0.02 0.02 0.02 0.02 0.01 0.01 0.02 0.03
0.00 0.01 0.01 0.00 0.00 0.00 0.00 0.01 0.01 0.02 0.03 0.03 0.02 0.02 0.01 0.01 0.01 0.01 0.01 0.01 0.01 0.01 0.01 0.02 0.02 0.02 0.02 0.02 0.01 0.01 0.01 0.01 0.02 0.02 0.02 0.02 0.03 0.02 0.02 0.01 0.01 0.01 0.02
0.00 0.01 0.01 0.01 0.01 0.01 0.01 0.01 0.02 0.02 0.02 0.02 0.01 0.01 0.01 0.01 0.01 0.01 0.01 0.01 0.01 0.01 0.02 0.03 0.04 0.04 0.03 0.02 0.01 0.01 0.01 0.01 0.01 0.02 0.02 0.03 0.04 0.03 0.02 0.01 0.01 0.01 0.01
0.01 0.01 0.02 0.02 0.02 0.03 0.03 0.04 0.04 0.03 0.03 0.02 0.02 0.02 0.02 0.01 0.01 0.01 0.02 0.02 0.02 0.02 0.02 0.03 0.03 0.04 0.03 0.02 0.02 0.02 0.01 0.01 0.02 0.02 0.03 0.03 0.03 0.03 0.02 0.02 0.01 0.01 0.02
0.01 0.01 0.02 0.04 0.06 0.06 0.07 0.07 0.06 0.05 0.04 0.04 0.03 0.03 0.03 0.02 0.02 0.02 0.02 0.02 0.02 0.02 0.03 0.03 0.03 0.04 0.05 0.06 0.04 0.02 0.02 0.02 0.02 0.02 0.04 0.04 0.04 0.03 0.02 0.02 0.01 0.01 0.01
0.03 0.03 0.04 0.04 0.06 0.08 0.09 0.09 0.08 0.08 0.07 0.06 0.04 0.04 0.04 0.03 0.03 0.02 0.02 0.02 0.03 0.03 0.04 0.04 0.05 0.06 0.09 0.08 0.03 0.02 0.03 0.03 0.03 0.04 0.04 0.04 0.05 0.04 0.03 0.02 0.02 0.01 0.01
0.08 0.08 0.06 0.04 0.03 0.04 0.06 0.09 0.11 0.11 0.08 0.05 0.04 0.03 0.03 0.02 0.02 0.02 0.02 0.03 0.03 0.06 0.05 0.05 0.05 0.05 0.06 0.05 0.03 0.03 0.04 0.04 0.04 0.05 0.04 0.04 0.04 0.04 0.04 0.03 0.02 0.02 0.01
MSLP
1011.55 1011.63 1011.81 1012.07 1012.40 1012.79 1013.18 1013.56 1013.88 1014.11 1014.23 1014.25 1014.17 1014.04 1013.87 1013.70 1013.57 1013.50 1013.47 1013.50 1013.55 1013.61 1013.66 1013.70 1013.73 1013.75 1013.77 1013.82 1013.87 1013.93 1013.99 1014.01 1013.99 1013.90 1013.75 1013.55 1013.30 1013.04 1012.80 1012.59 1012.44 1012.36 1012.34
1011.70 1011.65 1011.70 1011.87 1012.13 1012.46 1012.84 1013.23 1013.58 1013.86 1014.04 1014.11 1014.08 1013.97 1013.81 1013.64 1013.49 1013.38 1013.33 1013.33 1013.36 1013.41 1013.47 1013.53 1013.58 1013.62 1013.66 1013.72 1013.78 1013.85 1013.91 1013.94 1013.93 1013.86 1013.72 1013.52 1013.26 1012.97 1012.68 1012.40 1012.16 1011.97 1011.83
1011.97 1011.77 1011.68 1011.72 1011.87 1012.12 1012.46 1012.83 1013.20 1013.52 1013.76 1013.89 1013.91 1013.85 1013.72 1013.55 1013.39 1013.26 1013.18 1013.15 1013.16 1013.21 1013.26 1013.32 1013.38 1013.43 1013.48 1013.53 1013.59 1013.66 1013.72 1013.76 1013.76 1013.71 1013.60 1013.43 1013.20 1012.92 1012.62 1012.30 1012.00 1011.72 1011.48
1012.40 1012.05 1011.81 1011.70 1011.72 1011.87 1012.13 1012.47 1012.83 1013.18 1013.46 1013.65 1013.73 1013.71 1013.62 1013.47 1013.31 1013.17 1013.06 1013.00 1012.99 1013.01 1013.06 1013.11 1013.16 1013.20 1013.24 1013.28 1013.33 1013.38 1013.43 1013.47 1013.49 1013.47 1013.41 1013.29 1013.11 1012.87 1012.59 1012.28 1011.95 1011.61 1011.29
1013.00 1012.52 1012.14 1011.88 1011.77 1011.81 1011.98 1012.25 1012.58 1012.92 1013.23 1013.46 1013.59 1013.62 1013.56 1013.43 1013.27 1013.12 1012.99 1012.90 1012.86 1012.85 1012.88 1012.91 1012.94 1012.97 1012.99 1013.01 1013.02 1013.05 1013.08 1013.11 1013.14 1013.16 1013.15 1013.09 1012.98 1012.81 1012.58 1012.29 1011.96 1011.60 1011.22
1013.73 1013.17 1012.69 1012.32 1012.09 1012.01 1012.07 1012.26 1012.54 1012.85 1013.15 1013.39 1013.55 1013.60 1013.57 1013.45 1013.29 1013.12 1012.97 1012.85 1012.78 1012.74 1012.73 1012.74 1012.75 1012.75 1012.74 1012.73 1012.71 1012.70 1012.70 1012.72 1012.76 1012.80 1012.82 1012.83 1012.79 1012.69 1012.53 1012.29 1011.99 1011.62 1011.21
1014.57 1013.99 1013.45 1013.01 1012.69 1012.50 1012.47 1012.56 1012.75 1013.01 1013.27 1013.49 1013.64 1013.69 1013.66 1013.54 1013.37 1013.18 1012.99 1012.84 1012.73 1012.66 1012.62 1012.60 1012.59 1012.56 1012.52 1012.47 1012.41 1012.36 1012.33 1012.32 1012.35 1012.40 1012.45 1012.50 1012.52 1012.50 1012.40 1012.22 1011.95 1011.61 1011.19
1015.45 1014.89 1014.37 1013.89 1013.52 1013.26 1013.12 1013.12 1013.22 1013.39 1013.58 1013.75 1013.86 1013.88 1013.82 1013.68 1013.49 1013.26 1013.05 1012.86 1012.71 1012.60 1012.53 1012.48 1012.44 1012.39 1012.32 1012.24 1012.14 1012.05 1011.98 1011.94 1011.94 1011.98 1012.05 1012.12 1012.18 1012.20 1012.16 1012.03 1011.81 1011.49 1011.08
1016.27 1015.80 1015.33 1014.87 1014.48 1014.17 1013.96 1013.87 1013.87 1013.94 1014.04 1014.12 1014.17 1014.14 1014.04 1013.85 1013.62 1013.36 1013.10 1012.87 1012.69 1012.55 1012.45 1012.38 1012.32 1012.24 1012.15 1012.04 1011.92 1011.79 1011.68 1011.60 1011.57 1011.58 1011.62 1011.69 1011.77 1011.81 1011.80 1011.72 1011.53 1011.25 1010.87
1016.95 1016.60 1016.22 1015.82 1015.45 1015.12 1014.86 1014.68 1014.59 1014.56 1014.55 1014.55 1014.51 1014.41 1014.24 1014.01 1013.73 1013.43 1013.13 1012.87 1012.65 1012.49 1012.37 1012.28 1012.21 1012.13 1012.03 1011.90 1011.75 1011.60 1011.45 1011.32 1011.24 1011.20 1011.21 1011.25 1011.31 1011.36 1011.36 1011.30 1011.15 1010.91 1010.56
1017.43 1017.20 1016.93 1016.61 1016.27 1015.94 1015.66 1015.42 1015.24 1015.12 1015.02 1014.92 1014.79 1014.62 1014.39 1014.11 1013.79 1013.45 1013.13 1012.84 1012.60 1012.42 1012.29 1012.20 1012.12 1012.04 1011.93 1011.80 1011.64 1011.46 1011.28 1011.11 1010.97 1010.88 1010.84 1010.83 1010.85 1010.88 1010.88 1010.83 1010.71 1010.49 1010.19
1017.68 1017.57 1017.39 1017.14 1016.85 1016.54 1016.23 1015.96 1015.71 1015.51 1015.33 1015.15 1014.95 1014.71 1014.43 1014.11 1013.76 1013.41 1013.07 1012.77 1012.52 1012.34 1012.21 1012.12 1012.04 1011.96 1011.86 1011.73 1011.56 1011.36 1011.15 1010.95 1010.76 1010.62 1010.52 1010.46 1010.43 1010.43 1010.41 1010.36 1010.26 1010.08 1009.82
1017.73 1017.70 1017.59 1017.39 1017.14 1016.84 1016.52 1016.21 1015.92 1015.66 1015.41 1015.17 1014.92 1014.64 1014.33 1013.99 1013.63 1013.27 1012.94 1012.65 1012.41 1012.23 1012.11 1012.02 1011.95 1011.88 1011.78 1011.65 1011.48 1011.27 1011.04 1010.80 1010.58 1010.39 1010.24 1010.13 1010.06 1010.02 1009.99 1009.94 1009.85 1009.71 1009.49
1017.62 1017.62 1017.54 1017.37 1017.13 1016.83 1016.50 1016.17 1015.84 1015.53 1015.25 1014.97 1014.68 1014.38 1014.07 1013.73 1013.39 1013.05 1012.74 1012.47 1012.25 1012.08 1011.96 1011.88 1011.82 1011.74 1011.64 1011.51 1011.33 1011.11 1010.87 1010.62 1010.37 1010.15 1009.97 1009.83 1009.73 1009.67 1009.63 1009.58 1009.51 1009.40 1009.22
1017.42 1017.40 1017.30 1017.12 1016.86 1016.55 1016.20 1015.84 1015.49 1015.16 1014.85 1014.55 1014.25 1013.96 1013.65 1013.34 1013.03 1012.72 1012.44 1012.20 1012.00 1011.85 1011.74 1011.66 1011.58 1011.50 1011.39 1011.25 1011.06 1010.84 1010.59 1010.33 1010.08 1009.85 1009.66 1009.51 1009.41 1009.35 1009.31 1009.28 1009.22 1009.14 1008.99
1017.18 1017.10 1016.94 1016.71 1016.41 1016.06 1015.69 1015.31 1014.94 1014.59 1014.26 1013.96 1013.67 1013.39 1013.11 1012.83 1012.56 1012.29 1012.05 1011.84 1011.66 1011.52 1011.40 1011.30 1011.21 1011.10 1010.97 1010.80 1010.61 1010.38 1010.13 1009.88 1009.65 1009.44 1009.27 1009.14 1009.06 1009.01 1008.99 1008.98 1008.95 1008.88 1008.76
1016.93 1016.75 1016.51 1016.20 1015.84 1015.45 1015.04 1014.64 1014.25 1013.89 1013.57 1013.27 1012.99 1012.73 1012.48 1012.23 1011.99 1011.76 1011.54 1011.35 1011.18 1011.03 1010.90 1010.78 1010.65 1010.51 1010.35 1010.16 1009.95 1009.72 1009.48 1009.25 1009.05 1008.88 1008.76 1008.67 1008.64 1008.63 1008.64 1008.66 1008.65 1008.59 1008.48
1016.68 1016.38 1016.04 1015.65 1015.22 1014.78 1014.33 1013.91 1013.51 1013.14 1012.82 1012.52 1012.26 1012.01 1011.77 1011.55 1011.33 1011.12 1010.92 1010.73 1010.56 1010.40 1010.24 1010.08 1009.92 1009.74 1009.54 1009.32 1009.09 1008.87 1008.65 1008.46 1008.30 1008.19 1008.12 1008.11 1008.13 1008.17 1008.23 1008.27 1008.27 1008.22 1008.10
1016.39 1015.98 1015.54 1015.06 1014.57 1014.08 1013.61 1013.17 1012.76 1012.40 1012.07 1011.78 1011.51 1011.26 1011.03 1010.80 1010.59 1010.38 1010.18 1009.98 1009.79 1009.61 1009.42 1009.23 1009.03 1008.81 1008.58 1008.35 1008.12 1007.90 1007.71 1007.56 1007.46 1007.41 1007.41 1007.46 1007.54 1007.64 1007.73 1007.79 1007.81 1007.75 1007.62
1016.04 1015.53 1014.99 1014.45 1013.91 1013.39 1012.90 1012.45 1012.04 1011.67 1011.34 1011.04 1010.77 1010.50 1010.25 1010.01 1009.77 1009.55 1009.33 1009.11 1008.91 1008.70 1008.49 1008.27 1008.04 1007.81 1007.57 1007.33 1007.11 1006.91 1006.75 1006.65 1006.60 1006.61 1006.68 1006.78 1006.92 1007.05 1007.17 1007.25 1007.26 1007.19 1007.03
1015.59 1014.99 1014.39 1013.79 1013.22 1012.69 1012.20 1011.75 1011.35 1010.98 1010.64 1010.33 1010.02 1009.73 1009.44 1009.16 1008.89 1008.63 1008.39 1008.15 1007.93 1007.71 1007.49 1007.27 1007.04 1006.81 1006.58 1006.36 1006.16 1005.99 1005.87 1005.81 1005.81 1005.87 1005.97 1006.12 1006.28 1006.44 1006.56 1006.64 1006.64 1006.55 1006.36
1015.04 1014.37 1013.72 1013.09 1012.51 1011.98 1011.50 1011.06 1010.66 1010.29 1009.94 1009.60 1009.26 1008.92 1008.58 1008.26 1007.94 1007.64 1007.37 1007.12 1006.89 1006.68 1006.47 1006.28 1006.08 1005.88 1005.68 1005.50 1005.34 1005.21 1005.13 1005.10 1005.13 1005.21 1005.34 1005.49 1005.66 1005.81 1005.92 1005.97 1005.95 1005.84 1005.64
1014.39 1013.67 1012.99 1012.36 1011.77 1011.25 1010.78 1010.36 1009.96 1009.59 1009.21 1008.83 1008.44 1008.05 1007.66 1007.27 1006.91 1006.58 1006.29 1006.03 1005.82 1005.64 1005.48 1005.33 1005.19 1005.05 1004.92 1004.79 1004.68 1004.59 1004.54 1004.54 1004.58 1004.66 1004.77 1004.91 1005.04 1005.16 1005.24 1005.26 1005.21 1005.08 1004.88
1013.66 1012.92 1012.22 1011.59 1011.01 1010.50 1010.05 1009.63 1009.22 1008.83 1008.42 1007.99 1007.55 1007.09 1006.64 1006.21 1005.80 1005.45 1005.15 1004.91 1004.73 1004.60 1004.50 1004.43 1004.37 1004.31 1004.25 1004.19 1004.14 1004.09 1004.07 1004.07 1004.10 1004.15 1004.23 1004.32 1004.40 1004.47 1004.50 1004.48 1004.40 1004.27 1004.08
1012.90 1012.14 1011.44 1010.80 1010.24 1009.73 1009.27 1008.84 1008.42 1007.99 1007.53 1007.05 1006.55 1006.03 1005.53 1005.05 1004.62 1004.26 1003.97 1003.77 1003.64 1003.57 1003.55 1003.56 1003.59 1003.61 1003.63 1003.64 1003.63 1003.62 1003.60 1003.60 1003.60 1003.62 1003.65 1003.67 1003.69 1003.70 1003.68 1003.62 1003.54 1003.41 1003.26
1012.12 1011.35 1010.65 1010.01 1009.44 1008.93 1008.45 1008.00 1007.53 1007.05 1006.54 1006.00 1005.43 1004.87 1004.32 1003.81 1003.38 1003.02 1002.76 1002.60 1002.53 1002.53 1002.59 1002.68 1002.79 1002.89 1002.97 1003.03 1003.06 1003.06 1003.05 1003.03 1003.00 1002.97 1002.95 1002.91 1002.88 1002.83 1002.77 1002.70 1002.61 1002.52 1002.42
Thickness
5823 5823 5820 5818 5815 5810 5806 5803 5800 5797 5796 5794 5792 5790 5788 5789 5789 5788 5786 5783 5782 5781 5779 5779 5776 5775 5774 5772 5771 5769 5768 5767 5768 5765 5764 5766 5767 5765 5763 5761 5760 5758 5756
5821 5820 5819 5816 5813 5808 5805 5802 5800 5798 5796 5794 5793 5791 5790 5789 5789 5788 5785 5783 5782 5781 5781 5777 5776 5775 5773 5771 5769 5767 5767 5767 5767 5764 5761 5758 5759 5760 5763 5761 5758 5757 5755
5821 5819 5817 5815 5813 5809 5806 5804 5800 5798 5796 5794 5793 5791 5788 5788 5787 5785 5783 5783 5782 5781 5779 5777 5776 5774 5774 5771 5769 5768 5765 5764 5765 5765 5761 5756 5752 5755 5758 5758 5758 5755 5754
5824 5821 5818 5814 5813 5811 5809 5804 5800 5797 5795 5793 5792 5789 5785 5783 5784 5784 5784 5782 5781 5780 5779 5777 5775 5774 5774 5771 5770 5770 5767 5764 5763 5764 5763 5760 5758 5752 5749 5753 5756 5755 5752
5826 5823 5820 5816 5815 5813 5809 5805 5799 5796 5794 5792 5790 5787 5786 5785 5785 5784 5781 5780 5781 5779 5778 5776 5775 5773 5773 5772 5770 5768 5767 5766 5765 5763 5762 5759 5757 5756 5749 5745 5749 5752 5753
5827 5824 5821 5817 5814 5812 5809 5805 5798 5794 5792 5790 5789 5786 5784 5782 5780 5778 5778 5778 5779 5779 5778 5777 5775 5773 5773 5771 5769 5768 5767 5766 5764 5764 5763 5760 5757 5753 5751 5747 5746 5746 5749
5826 5822 5818 5814 5811 5808 5806 5803 5798 5793 5791 5789 5787 5785 5783 5781 5779 5778 5777 5776 5778 5777 5776 5777 5774 5773 5771 5770 5770 5768 5767 5766 5763 5762 5762 5762 5760 5758 5754 5749 5747 5746 5748
5824 5821 5817 5813 5810 5807 5804 5801 5797 5792 5791 5789 5786 5784 5782 5782 5781 5779 5778 5777 5777 5777 5775 5774 5773 5771 5771 5770 5768 5768 5766 5765 5763 5763 5760 5759 5760 5759 5755 5751 5746 5743 5744
5821 5819 5816 5812 5809 5806 5803 5800 5796 5792 5790 5788 5785 5782 5781 5780 5780 5778 5777 5777 5776 5775 5773 5772 5771 5770 5769 5768 5766 5765 5763 5763 5762 5762 5760 5758 5759 5757 5756 5754 5749 5742 5738
5819 5817 5814 5810 5808 5806 5802 5799 5796 5791 5789 5787 5784 5783 5780 5778 5777 5776 5774 5774 5773 5772 5771 5770 5769 5768 5767 5765 5764 5763 5762 5760 5759 5758 5756 5755 5756 5755 5754 5752 5750 5747 5741
5816 5814 5812 5809 5807 5805 5801 5796 5793 5790 5787 5785 5783 5780 5778 5776 5774 5773 5772 5771 5770 5768 5767 5767 5766 5765 5763 5762 5761 5761 5759 5757 5756 5755 5753 5752 5751 5751 5751 5750 5748 5745 5741
5814 5811 5808 5806 5803 5800 5797 5793 5790 5788 5786 5783 5780 5778 5776 5774 5772 5771 5769 5768 5766 5765 5764 5763 5762 5761 5760 5759 5758 5757 5756 5754 5752 5751 5749 5748 5748 5746 5747 5746 5744 5742 5740
5807 5806 5803 5800 5798 5796 5793 5791 5787 5785 5784 5781 5778 5776 5774 5771 5769 5768 5766 5765 5763 5761 5761 5759 5758 5757 5757 5756 5755 5753 5752 5751 5749 5748 5746 5745 5743 5742 5742 5740 5740 5740 5739
5799 5799 5796 5793 5792 5791 5789 5786 5784 5783 5780 5777 5775 5772 5770 5768 5767 5765 5763 5761 5760 5758 5757 5756 5754 5753 5753 5751 5751 5750 5748 5746 5745 5744 5742 5742 5740 5738 5737 5736 5734 5734 5733
5793 5792 5790 5787 5786 5785 5783 5782 5780 5778 5776 5772 5770 5768 5767 5765 5763 5760 5759 5757 5756 5755 5753 5752 5750 5749 5749 5748 5746 5745 5744 5742 5740 5739 5738 5737 5735 5733 5732 5732 5730 5728 5727
5788 5787 5785 5783 5780 5779 5777 5776 5774 5772 5770 5766 5764 5764 5762 5759 5757 5756 5754 5753 5751 5750 5748 5747 5746 5745 5745 5740 5737 5736 5738 5737 5735 5733 5732 5732 5730 5727 5725 5723 5722 5720 5720
5783 5781 5780 5778 5776 5775 5773 5770 5769 5768 5765 5762 5760 5758 5756 5753 5752 5752 5750 5748 5746 5745 5743 5742 5740 5738 5735 5731 5729 5728 5730 5731 5730 5729 5728 5729 5728 5724 5722 5719 5716 5715 5713
5779 5777 5776 5775 5774 5773 5770 5767 5765 5762 5759 5757 5756 5754 5751 5749 5748 5746 5743 5742 5741 5739 5738 5736 5734 5732 5729 5724 5722 5720 5723 5725 5724 5724 5723 5721 5720 5719 5715 5715 5713 5712 5711
5775 5774 5774 5773 5770 5768 5764 5761 5759 5756 5754 5752 5751 5750 5748 5745 5743 5740 5738 5737 5736 5734 5732 5731 5728 5726 5723 5718 5716 5713 5718 5719 5719 5719 5717 5716 5714 5710 5707 5707 5706 5706 5706
5769 5768 5768 5767 5763 5761 5759 5754 5753 5751 5749 5748 5747 5747 5744 5741 5738 5736 5734 5733 5731 5729 5727 5725 5724 5721 5719 5713 5710 5707 5714 5713 5713 5712 5712 5707 5706 5702 5700 5701 5700 5698 5699
5760 5760 5760 5758 5756 5755 5752 5747 5746 5745 5745 5744 5742 5741 5738 5736 5733 5731 5729 5727 5725 5723 5721 5719 5718 5716 5714 5709 5705 5702 5706 5707 5706 5707 5707 5705 5697 5695 5693 5693 5694 5693 5692
5751 5751 5750 5749 5748 5747 5744 5741 5739 5740 5739 5737 5735 5733 5732 5731 5730 5725 5723 5721 5719 5716 5715 5713 5712 5712 5710 5706 5702 5698 5696 5697 5699 5699 5700 5698 5691 5688 5687 5687 5687 5685 5684
5742 5743 5742 5740 5740 5739 5737 5733 5733 5732 5731 5729 5727 5726 5725 5724 5722 5720 5717 5715 5713 5713 5712 5710 5708 5708 5707 5704 5698 5694 5691 5689 5690 5693 5690 5687 5684 5682 5682 5682 5680 5679 5682
5733 5734 5733 5731 5729 5730 5729 5728 5726 5725 5723 5720 5720 5719 5718 5717 5715 5714 5714 5712 5710 5708 5707 5706 5704 5703 5701 5699 5695 5692 5688 5684 5684 5685 5683 5680 5679 5679 5679 5679 5678 5678 5680
5725 5725 5723 5721 5720 5721 5720 5720 5719 5717 5715 5713 5713 5713 5712 5711 5708 5708 5707 5707 5706 5704 5700 5700 5699 5697 5694 5691 5687 5685 5685 5683 5682 5679 5679 5680 5680 5679 5680 5679 5678 5677 5676
5716 5715 5714 5713 5712 5712 5712 5712 5712 5710 5707 5707 5706 5708 5708 5705 5704 5701 5700 5697 5696 5693 5691 5689 5687 5689 5685 5681 5678 5676 5675 5673 5671 5670 5674 5676 5677 5677 5676 5675 5674 5673 5671